This is the latest recevied weather packets stored in our database for station/object W2JGA. If no packets are shown the sender has not sent any weather packets the latest 10 day(s).
| Time | Temp. | Humidity | Pressure | Rain* | Wind** | Luminosity | Snow |
|---|---|---|---|---|---|---|---|
| 1777321114 | 25.56° C | 25% | 1015.4 hPa | 0 mm | - | 713 W/m² | - |
| 1777320812 | 26.11° C | 24% | 1015.4 hPa | 0 mm | - | 702 W/m² | - |
| 1777320508 | 25.56° C | 25% | 1015.8 hPa | 0 mm | - | 725 W/m² | - |
| 1777320206 | 25° C | 25% | 1015.4 hPa | 0 mm | - | 736 W/m² | - |
| 1777319903 | 25° C | 24% | 1015.8 hPa | 0 mm | - | 774 W/m² | - |
| 1777319599 | 25° C | 25% | 1015.4 hPa | 0 mm | - | 768 W/m² | - |
| 1777319297 | 25° C | 25% | 1015.8 hPa | 0 mm | - | 771 W/m² | - |
| 1777318994 | 24.44° C | 24% | 1015.8 hPa | 0 mm | - | 762 W/m² | - |
| 1777318690 | 24.44° C | 25% | 1015.8 hPa | 0 mm | - | 767 W/m² | - |
| 1777318386 | 24.44° C | 25% | 1015.8 hPa | 0 mm | - | 777 W/m² | - |
| 1777318084 | 24.44° C | 24% | 1016.1 hPa | 0 mm | - | 776 W/m² | - |
| 1777317780 | 24.44° C | 25% | 1016.1 hPa | 0 mm | - | 776 W/m² | - |
| 1777317477 | 24.44° C | 25% | 1016.1 hPa | 0 mm | - | 732 W/m² | - |
| 1777317175 | 23.89° C | 25% | 1015.8 hPa | 0 mm | - | 711 W/m² | - |
| 1777316870 | 23.89° C | 25% | 1016.1 hPa | 0 mm | - | 707 W/m² | - |
| 1777316567 | 24.44° C | 25% | 1016.1 hPa | 0 mm | - | 691 W/m² | - |
| 1777316264 | 25° C | 24% | 1016.1 hPa | 0 mm | - | 663 W/m² | - |
| 1777315961 | 23.89° C | 25% | 1016.1 hPa | 0 mm | - | 623 W/m² | - |
| 1777315659 | 23.33° C | 25% | 1016.1 hPa | 0 mm | - | 621 W/m² | - |
| 1777315357 | 23.89° C | 24% | 1016.5 hPa | 0 mm | - | 593 W/m² | - |
| 1777315055 | 24.44° C | 23% | 1016.1 hPa | 0 mm | - | 602 W/m² | - |
| 1777314755 | 24.44° C | 24% | 1016.5 hPa | 0 mm | - | 594 W/m² | - |
| 1777314452 | 24.44° C | 27% | 1016.5 hPa | 0 mm | - | 680 W/m² | - |
| 1777314148 | 23.89° C | 27% | 1016.5 hPa | 0 mm | - | 696 W/m² | - |
| 1777313847 | 23.33° C | 28% | 1016.5 hPa | 0 mm | - | 662 W/m² | - |
* Rain latest hour (hover to see other rain measurements)
** Current wind speed in m/s (hover to see current wind gust speed)